sat.trackr.live / text

‹ back to catalog

STARLINK-36381

NORAD 67952 · 2026-037W

PAYLOAD ACTIVE UNKNOWN

§ Identity

Operator
Country
US
Launch date
2026-02-24
Launch site
AFETR
Launch vehicle
Mass (kg)
RCS (m²)

Purposes: comms

External: N2YO · Heavens-Above · Gunter

§ Orbital elements

Epoch: 2026-05-25T04:00:03.998880Z

Period
94.27 min
Inclination
42.9994°
Eccentricity
0.0001088
Mean motion
15.27578326 rev/d
Perigee alt
482.3 km
Apogee alt
483.8 km
Semi-major
6,861.2 km
B*
-3.1868e-4
RAAN
119.0585°
Arg perigee
257.3238°
Mean anomaly
119.6582°
Rev number
581

§ Raw data

STARLINK-363811 67952U 26037W   26145.16671295 -.00009020  00000+0 -31868-3 0  99932 67952  42.9994 119.0585 0001088 257.3238 119.6582 15.27578326  5816

JSON: /api/v1/satellites/67952 · /tle

For live sub-satellite position, see the globe view (requires WebGL).

§ Visibility from observer

Set your observer location to see the next 7 days of passes ≥ 10°. The values pass through the URL so the page stays shareable.

No JS? Fill the form by hand. The geolocation button needs JavaScript.